Location: Castillon
(43.0896°N, 0.2156°E)
Time: 13:31:08
(UTC+00:00)

Ariane Rocket - Pass Details

Date: 16 June 2021
Orbit: 759 x 771 km, 98.7° (Epoch: 01 August)

Event Time Altitude Azimuth Distance (km) Brightness Sun altitude
Rises 20:10:11 0° 165° (SSE) 3,224 5.7 -5.1°
Reaches altitude 10° 20:12:28 10° 166° (SSE) 2,303 5.0 -5.5°
Maximum altitude 20:17:33 87° 254° (WSW) 777 3.1 -6.2°
Drops below altitude 10° 20:22:42 10° 346° (NNW) 2,323 6.5 -6.9°
Sets 20:25:01 0° 346° (NNW) 3,255 7.3 -7.2°
